N1OTX Weather Reports


time (UTC)temp
F
wind
direction
speed
knots
gust
knots
rain 1hr
in
rain 24hr
in
rain mn
in
humidity
%
barometer
mb
20260502203529 57 176 1.7 7.0 0.00 0.06 0.06 59 1009.9
20260502203031 57 221 2.6 11.3 0.00 0.06 0.06 58 1009.9
20260502202530 57 201 2.6 9.6 0.00 0.06 0.06 58 1009.9
20260502202030 57 215 3.5 7.8 0.00 0.06 0.06 57 1010.0
20260502201550 57 170 2.6 7.8 0.00 0.06 0.06 57 1010.0
20260502201030 57 233 2.6 12.2 0.00 0.06 0.06 56 1010.0
20260502200530 58 238 2.6 12.2 0.00 0.06 0.06 57 1010.0
20260502200030 57 228 2.6 12.2 0.00 0.06 0.06 58 1010.0
20260502195550 57 204 4.3 13.0 0.00 0.06 0.06 59 1010.0
20260502195029 56 196 3.5 13.0 0.00 0.06 0.06 64 1010.1
20260502194529 55 198 2.6 12.2 0.00 0.06 0.06 65 1010.3
20260502194029 55 192 2.6 13.0 0.00 0.06 0.06 66 1010.5
20260502193529 55 207 3.5 13.0 0.00 0.06 0.06 65 1010.4
20260502193029 55 227 2.6 7.8 0.00 0.06 0.06 65 1010.5
20260502192534 55 191 1.7 7.0 0.00 0.06 0.06 65 1010.5
20260502192051 56 210 2.6 9.6 0.00 0.06 0.06 65 1010.6
20260502191535 55 202 0.9 3.5 0.00 0.06 0.06 68 1010.7
20260502191030 55 156 2.6 8.7 0.00 0.06 0.06 66 1010.7
20260502190531 55 186 1.7 8.7 0.00 0.06 0.06 66 1010.6
20260502190050 55 193 0.9 6.1 0.00 0.06 0.06 65 1010.6
20260502185531 54 191 2.6 9.6 0.00 0.06 0.06 65 1010.6
20260502185031 54 189 2.6 12.2 0.00 0.06 0.06 65 1010.6
20260502184530 54 181 3.5 13.0 0.00 0.06 0.06 62 1010.8
20260502184030 55 214 2.6 8.7 0.00 0.06 0.06 61 1010.7
20260502183551 55 180 2.6 12.2 0.00 0.06 0.06 60 1010.7
20260502183030 55 215 3.5 14.8 0.00 0.06 0.06 59 1010.7
20260502182530 55 204 2.6 13.0 0.00 0.06 0.06 60 1010.7
20260502182030 56 208 3.5 12.2 0.00 0.06 0.06 58 1010.7
20260502181529 56 201 2.6 9.6 0.00 0.06 0.06 57 1010.9
20260502181030 55 192 3.5 12.2 0.00 0.06 0.06 55 1010.9
20260502180529 55 234 2.6 12.2 0.00 0.06 0.06 54 1010.9
20260502164049 54 161 0.0 1.7 0.00 0.06 0.06 75 1011.2
20260502163529 54 187 0.9 2.6 0.00 0.06 0.06 74 1011.3
20260502163029 54 221 0.9 1.7 0.00 0.06 0.06 76 1011.2
20260502162530 54 271 0.0 2.6 0.00 0.06 0.06 76 1011.3
20260502162030 54 283 0.0 2.6 0.00 0.06 0.06 77 1011.4
20260502161530 54 278 0.9 1.7 0.00 0.06 0.06 76 1011.5
20260502161030 54 0.0 0.9 0.00 0.06 0.06 76 1011.5
20260502160530 54 159 0.9 3.5 0.00 0.06 0.06 75 1011.6
20260502152031 53 107 0.9 5.2 0.00 0.06 0.06 79 1011.7
20260502151530 53 137 0.9 5.2 0.00 0.06 0.06 78 1011.8
20260502151031 54 218 0.9 5.2 0.00 0.06 0.06 79 1011.8
20260502150530 54 192 0.9 1.7 0.00 0.06 0.06 79 1011.9
20260502130529 47 160 0.0 1.7 0.01 0.02 0.02 88 1012.9
20260502123610 47 23 0.9 1.7 0.01 0.02 0.02 87 1012.4
20260502123050 48 24 0.0 2.6 0.01 0.02 0.02 86 1012.6
20260502122529 48 11 0.9 2.6 0.01 0.02 0.02 85 1012.6
20260502122029 48 7 0.9 3.5 0.01 0.02 0.02 85 1012.5
20260502121529 48 2 0.9 3.5 0.01 0.02 0.02 87 1012.4
20260502121029 48 357 0.9 1.7 0.01 0.02 0.02 88 1012.2
20260502120529 48 139 0.0 1.7 0.02 0.02 0.02 90 1012.3
20260502115549 48 153 0.0 0.9 0.02 0.02 0.02 91 1012.2
20260502115029 48 155 0.0 0.9 0.02 0.02 0.02 90 1012.2
20260502114531 48 161 0.0 0.9 0.01 0.01 0.01 89 1012.0
20260502114030 48 0.0 0.0 0.01 0.01 0.01 88 1012.1
20260502113550 48 0.0 0.0 0.01 0.01 0.01 90 1012.1
20260502113030 48 0.0 0.0 0.01 0.01 0.01 88 1012.0
20260502112530 48 0.0 0.0 0.01 0.01 0.01 87 1012.1
20260502112030 48 160 0.0 0.9 0.01 0.01 0.01 86 1012.2
20260502111530 48 161 0.0 0.9 0.00 0.00 0.00 86 1012.2
20260502111030 48 0.0 0.0 0.00 0.00 0.00 85 1011.8
20260502110529 48 161 0.0 1.7 0.00 0.00 0.00 86 1011.9
20260502110029 48 162 0.0 1.7 0.00 0.00 0.00 85 1011.7
20260502105549 48 163 0.0 1.7 0.00 0.00 0.00 86 1011.5
20260502105029 48 179 0.0 1.7 0.00 0.00 0.00 85 1011.7
20260502104529 47 0.0 0.0 0.00 0.00 0.00 86 1011.7
20260502104029 47 193 0.0 1.7 0.00 0.00 0.00 87 1011.6
20260502103529 47 179 0.0 1.7 0.00 0.00 0.00 90 1011.5
20260502103052 46 181 0.0 0.9 0.00 0.00 0.00 91 1011.4
20260502102530 46 0.0 0.0 0.00 0.00 0.00 90 1011.3
20260502102050 46 0.0 0.0 0.00 0.00 0.00 90 1011.2
20260502101530 46 0.0 0.0 0.00 0.00 0.00 90 1011.2
20260502101030 46 0.0 0.0 0.00 0.00 0.00 90 1011.1
20260502100530 46 0.0 0.0 0.00 0.00 0.00 89 1011.0
20260502091530 47 170 0.0 0.9 0.00 0.00 0.00 81 1011.8
20260502091030 46 166 0.0 1.7 0.00 0.00 0.00 80 1011.4
20260502090530 46 166 0.0 1.7 0.00 0.00 0.00 80 1011.4
20260502071530 45 30 0.0 0.9 0.00 0.00 0.00 81 1011.5
20260502071030 45 0.0 0.0 0.00 0.00 0.00 81 1011.6
20260502070550 44 30 0.0 0.9 0.00 0.00 0.00 81 1011.8
20260502070029 44 0.0 0.0 0.00 0.00 0.00 81 1011.8
20260502065529 44 0.0 0.0 0.00 0.00 0.00 82 1011.7
20260502065030 43 0.0 0.0 0.00 0.00 0.00 83 1011.7
20260502064549 42 0.0 0.0 0.00 0.00 0.00 85 1011.4
20260502064029 42 0.0 0.0 0.00 0.00 0.00 86 1011.3
20260502063529 42 0.0 0.0 0.00 0.00 0.00 84 1011.4
20260502063029 42 0.0 0.0 0.00 0.00 0.00 84 1011.3
20260502062609 42 0.0 0.0 0.00 0.00 0.00 83 1011.3
20260502062049 43 0.0 0.0 0.00 0.00 0.00 83 1011.2
20260502061528 43 0.0 0.0 0.00 0.00 0.00 83 1011.3
20260502061050 43 0.0 0.0 0.00 0.00 0.00 82 1011.2
20260502060530 43 0.0 0.0 0.00 0.00 0.00 82 1011.3
20260502060030 43 0.0 0.0 0.00 0.00 0.00 82 1011.4
20260502055550 43 0.0 0.0 0.00 0.00 0.00 83 1011.4
20260502055030 43 0.0 0.9 0.00 0.00 0.00 81 1011.3
20260502054550 43 30 0.0 0.9 0.00 0.00 0.00 81 1011.3
20260502054030 43 0.0 0.0 0.00 0.00 0.00 82 1011.3
20260502053529 43 0.0 0.0 0.00 0.00 0.00 84 1011.3
20260502053049 44 0.0 0.0 0.00 0.00 0.00 82 1011.4
20260502052529 44 0.0 0.0 0.00 0.00 0.00 83 1011.4
20260502052029 44 0.0 0.0 0.00 0.00 0.00 82 1011.4
20260502051529 44 0.0 0.0 0.00 0.00 0.00 80 1011.4
20260502051114 44 0.0 0.0 0.00 0.00 0.00 82 1011.3
20260502050528 44 0.0 0.0 0.00 0.00 0.00 79 1011.2
20260502050028 44 0.0 0.0 0.00 0.00 0.00 80 1011.4
20260502045530 44 0.0 0.0 0.00 0.00 0.00 80 1011.5
20260502045050 44 0.0 0.0 0.00 0.00 0.00 80 1011.5
20260502044550 44 0.0 0.0 0.00 0.00 0.00 80 1011.6
20260502044030 44 0.0 0.0 0.00 0.00 0.00 78 1011.7
20260502043530 44 0.0 0.0 0.00 0.00 0.00 78 1011.7
20260502043029 44 0.0 0.0 0.00 0.00 0.00 78 1011.8
20260502042529 45 0.0 0.0 0.00 0.00 0.00 78 1011.7
20260502042029 45 0.0 0.0 0.00 0.00 0.00 78 1011.7
20260502041529 45 0.0 0.0 0.00 0.00 0.00 76 1011.6
20260502041031 45 0.0 0.0 0.00 0.00 0.00 76 1011.6
20260502040531 45 0.0 0.0 0.00 0.00 0.00 76 1011.6
20260502040031 45 0.0 0.0 0.00 0.00 0.00 72 1011.6
20260502035530 45 0.0 0.0 0.00 0.00 0.00 76 1011.5
20260502035030 45 0.0 0.0 0.00 0.00 0.00 75 1011.5
20260502034530 45 0.0 0.0 0.00 0.00 0.00 76 1011.5
20260502034030 45 0.0 0.0 0.00 0.00 0.00 76 1011.6
20260502033530 45 0.0 0.0 0.00 0.00 0.00 76 1011.4
20260502033030 45 0.0 0.0 0.00 0.00 0.00 74 1011.5
20260502032530 45 0.0 0.0 0.00 0.00 0.00 74 1011.4
20260502032030 45 0.0 0.0 0.00 0.00 0.00 74 1011.4
20260502031529 45 0.0 0.0 0.00 0.00 0.00 74 1011.4
20260502031050 45 0.0 0.0 0.00 0.00 0.00 75 1011.3
20260502030529 44 0.0 0.0 0.00 0.00 0.00 76 1011.4
20260502030031 44 0.0 0.0 0.00 0.00 0.00 77 1011.4
20260502025551 44 0.0 0.0 0.00 0.00 0.00 76 1011.4
20260502025030 44 0.0 0.0 0.00 0.00 0.00 74 1011.4
20260502024531 44 0.0 0.0 0.00 0.00 0.00 74 1011.4
20260502024030 44 0.0 0.0 0.00 0.00 0.00 74 1011.4
20260502023550 44 0.0 0.0 0.00 0.00 0.00 74 1011.3
20260502023030 44 0.0 0.0 0.00 0.00 0.00 72 1011.4
20260502022550 45 0.0 0.0 0.00 0.00 0.00 71 1011.4
20260502022030 45 0.0 0.0 0.00 0.00 0.00 71 1011.4
20260502021530 45 0.0 0.0 0.00 0.00 0.00 73 1011.3
20260502021030 45 0.0 0.0 0.00 0.00 0.00 73 1011.4
20260502020530 45 0.0 0.0 0.00 0.00 0.00 72 1011.4
20260502020029 45 0.0 0.0 0.00 0.00 0.00 70 1011.5
20260502015529 45 0.0 0.9 0.00 0.00 0.00 69 1011.4
20260502015029 45 30 0.0 0.9 0.00 0.00 0.00 67 1011.4
20260502014529 45 0.0 0.0 0.00 0.00 0.00 71 1011.3
20260502014029 46 0.0 0.0 0.00 0.00 0.00 68 1011.3
20260502013529 46 0.0 0.0 0.00 0.00 0.00 66 1011.3
20260502013029 46 0.0 0.0 0.00 0.00 0.00 67 1011.3
20260502012530 46 0.0 0.0 0.00 0.00 0.00 68 1011.2
20260502012030 47 0.0 0.0 0.00 0.00 0.00 67 1011.2
20260502011530 47 0.0 0.0 0.00 0.00 0.00 67 1011.2
20260502011030 47 0.0 0.0 0.00 0.00 0.00 63 1011.2
20260502010530 48 0.0 0.0 0.00 0.00 0.00 63 1011.1
20260502010030 48 0.0 0.0 0.00 0.00 0.00 62 1011.1
20260502005529 48 0.0 0.0 0.00 0.00 0.00 61 1011.0
20260502005050 49 0.0 0.0 0.00 0.00 0.00 61 1011.0
20260502004529 49 0.0 0.0 0.00 0.00 0.00 58 1011.0
20260502004029 49 0.0 0.0 0.00 0.00 0.00 61 1010.9
20260502003611 50 0.0 0.0 0.00 0.00 0.00 59 1010.8
20260502003031 50 0.0 0.0 0.00 0.00 0.00 59 1010.7
20260502002531 50 0.0 0.0 0.00 0.00 0.00 57 1010.6
20260502002031 51 0.0 0.0 0.00 0.00 0.00 55 1010.5
20260502001530 51 0.0 0.0 0.00 0.00 0.00 55 1010.3
20260502001031 51 0.0 0.0 0.00 0.00 0.00 53 1010.3
20260502000530 52 0.0 0.0 0.00 0.00 0.00 53 1010.3
20260502000110 53 30 0.0 0.9 0.00 0.00 0.00 53 1010.1
20260501235530 53 0.0 0.0 0.00 0.00 0.00 46 1010.1
20260501235050 54 31 0.0 0.9 0.00 0.00 0.00 45 1010.0
20260501234529 54 26 0.0 0.9 0.00 0.00 0.00 50 1009.8
20260501234029 55 0.0 0.0 0.00 0.00 0.00 46 1009.8
20260501233549 56 0.0 0.0 0.00 0.00 0.00 45 1009.7
20260501233029 56 0.0 0.9 0.00 0.00 0.00 44 1009.6
20260501232529 57 28 0.0 0.9 0.00 0.00 0.00 41 1009.6
20260501232031 58 0.0 0.0 0.00 0.00 0.00 36 1009.5
20260501231531 59 8 0.9 2.6 0.00 0.00 0.00 33 1009.3
20260501231031 58 350 0.0 1.7 0.00 0.00 0.00 36 1009.3
20260501230530 59 350 0.0 0.9 0.00 0.00 0.00 35 1009.3
20260501230031 59 350 0.0 0.9 0.00 0.00 0.00 35 1009.3
20260501225530 60 350 0.0 1.7 0.00 0.00 0.00 32 1009.3
20260501225030 60 350 0.9 1.7 0.00 0.00 0.00 33 1009.2
20260501224530 60 350 0.9 1.7 0.00 0.00 0.00 30 1009.3
20260501224030 61 336 1.7 3.5 0.00 0.00 0.00 30 1009.1
20260501223529 61 350 1.7 3.5 0.00 0.00 0.00 29 1009.0
20260501223029 61 2 1.7 3.5 0.00 0.00 0.00 30 1009.1
20260501222529 61 3 0.9 3.5 0.00 0.00 0.00 30 1009.0
20260501222029 61 14 1.7 6.1 0.00 0.00 0.00 30 1009.0
20260501221550 61 8 1.7 5.2 0.00 0.00 0.00 29 1009.0
20260501221031 61 350 1.7 5.2 0.00 0.00 0.00 31 1009.0
20260501220611 61 350 0.9 6.1 0.00 0.00 0.00 31 1009.0
20260501220031 61 9 0.9 6.1 0.00 0.00 0.00 32 1008.8
20260501215530 61 349 2.6 5.2 0.00 0.00 0.00 30 1008.8
20260501215030 61 323 0.9 3.5 0.00 0.00 0.00 31 1008.7
20260501214530 61 298 0.9 3.5 0.00 0.00 0.00 32 1008.8
20260501214030 61 344 1.7 3.5 0.00 0.00 0.00 31 1008.8
20260501213552 61 353 1.7 3.5 0.00 0.00 0.00 31 1008.7
20260501213030 61 334 0.9 1.7 0.00 0.00 0.00 32 1008.7
20260501212530 61 10 0.0 2.6 0.00 0.00 0.00 32 1008.6
20260501212029 61 3 0.0 1.7 0.00 0.00 0.00 30 1008.6
20260501211529 62 2 1.7 6.1 0.00 0.00 0.00 30 1008.6
20260501211029 62 2 1.7 3.5 0.00 0.00 0.00 30 1008.6
20260501210531 62 354 0.9 2.6 0.00 0.00 0.00 31 1008.6
20260501210031 62 343 1.7 3.5 0.00 0.00 0.00 30 1008.5
20260501205551 62 1 1.7 5.2 0.00 0.00 0.00 31 1008.3
20260501205030 62 279 1.7 5.2 0.00 0.00 0.00 30 1008.4
20260501204531 62 342 1.7 5.2 0.00 0.00 0.00 31 1008.3
20260501204030 62 341 2.6 5.2 0.00 0.00 0.00 30 1008.3